Home > Time Zones > World Clock > Weather > U.S.A. > Reno > Past weeks

Flag for U.S.A. Weather past 2 weeks in Reno, Nevada, U.S.A.

Now
39 °F

Partly cloudy.


Feels Like: 31 °F
Forecast: 34 / 44 °F
Wind: 13 mph from North

Location: Reno Tahoe International Airport

Current Time: Feb 27, 2015 at 9:37:01 PM

Latest Report: Feb 27, 2015 at 8:55 PM


Visibility: 10 mi

Pressure: 29.60 "Hg

Humidity: 73%

Dew point: 31 °F

Location of RenoLocation

Historic Weather in Reno — Graph

°F

Reno temperature yesterday

Maximum temperature yesterday: 55 °F (at 3:55 PM)
Minimum temperature yesterday: 36 °F (at 2:55 AM)
Average temperature yesterday: 45 °F

Past Weeks' High & Low Weather Summary

 TemperatureHumidityPressure
High72 °F (Feb 14, 2:55 PM)90% (Feb 13, 6:55 AM)30.51 "Hg (Feb 13, 6:55 AM)
Low22 °F (Feb 23, 6:55 AM)6% (Feb 24, 2:55 PM)29.56 "Hg (Feb 27, 2:55 PM)
Average45 °F45%30.11 "Hg
* Reported Feb 12 7:55 PM — Feb 27 7:55 PM, Reno, Weather by CustomWeather, © 2015

Note: Actual official high and low records may vary slightly from our data, if they occured in-between our weather recording intervals... More about our weather records

Advertising

Reno weather history for previous 24 hours

 ConditionsComfort  
Time TempWeatherWind HumidityBarometerVisibility
7:55 PM
Fri, Feb 27
41 °FPassing clouds.No wind67%29.61 "Hg10 mi
6:55 PM42 °FPassing clouds.9 mph65%29.62 "Hg10 mi
5:55 PM42 °FPassing clouds.5 mph68%29.60 "Hg10 mi
4:55 PM41 °FLight rain. Partly sunny.9 mph80%29.62 "Hg10 mi
3:55 PM52 °FBroken clouds.17 mph34%29.57 "Hg10 mi
2:55 PM52 °FBroken clouds.21 mph32%29.56 "Hg10 mi
1:55 PM50 °FBroken clouds.17 mph39%29.57 "Hg10 mi
12:55 PM51 °FPartly sunny.6 mph41%29.60 "Hg10 mi
11:55 AM49 °FPartly sunny.6 mph50%29.65 "Hg10 mi
10:55 AM44 °FLight rain. Partly sunny.17 mph65%29.70 "Hg10 mi
9:55 AM47 °FBroken clouds.No wind42%29.70 "Hg10 mi
8:55 AM43 °FScattered clouds.3 mph45%29.73 "Hg10 mi
7:55 AM39 °FLight rain. Partly sunny.No wind57%29.75 "Hg10 mi
6:55 AM36 °FPartly sunny.No wind62%29.75 "Hg10 mi
5:55 AM37 °FPartly cloudy.No wind60%29.76 "Hg10 mi
4:55 AM39 °FPassing clouds.No wind53%29.75 "Hg10 mi
3:55 AM40 °FPassing clouds.3 mph51%29.75 "Hg10 mi
2:55 AM41 °FPassing clouds.5 mph51%29.78 "Hg10 mi
1:55 AM43 °FPassing clouds.No wind45%29.79 "Hg10 mi
12:55 AM43 °FPassing clouds.3 mph43%29.80 "Hg10 mi
11:55 PM
Thu, Feb 26
44 °FPassing clouds.3 mph41%29.82 "Hg10 mi
10:55 PM45 °FPassing clouds.3 mph40%29.84 "Hg10 mi
9:55 PM45 °FPassing clouds.No wind40%29.86 "Hg10 mi
Weather by CustomWeather, © 2015

See weather overviewHow to use our weather pages